Location: Cowley
(49.5667°N, 114.0667°W)
Time: 11:52:15
(UTC+00:00)

Envisat - Pass Details

Date: 01 December 2021
Orbit: 764 x 766 km, 98.2° (Epoch: 25 January)

Event Time Altitude Azimuth Distance (km) Brightness Sun altitude
Rises 00:19:05 0° 187° (S) 3,220 6.7 -6.4°
Reaches altitude 10° 00:21:31 10° 196° (SSW) 2,299 6.1 -6.7°
Maximum altitude 00:26:13 38° 264° (W) 1,168 4.7 -7.4°
Drops below altitude 10° 00:30:58 10° 332° (NNW) 2,316 5.6 -8.1°
Sets 00:33:27 0° 340° (NNW) 3,247 6.2 -8.5°
